Hourly Data Report for July 11, 2021

TORONTO CITY CENTRE
ONTARIO
Current Station Operator: NAVCAN

43°37'39.000" N
79°23'46.000" W
76.80 m
6158359
71265
YTZ

Download Data

Hourly Data (July 2021)
Hourly Data Report for July 11, 2021
TIME
LST
Temp Definition
°C
Dew Point Definition
°C
Rel Hum Definition
%
Precip. Amount Definition
mm

Wind Dir Definition
10's deg

Wind Spd Definition
km/h
Visibility Definition
km
Stn Press Definition
kPa
Hmdx Definition


Wind Chill Definition


Weather Definition


00:00 18.8 15.1 79 0.0 7 9 16.1 100.85     LegendNANA
01:00 19.0 15.5 80 0.0 7 13 16.1 100.82     LegendNANA
02:00 18.9 16.0 83 0.0 6 13 16.1 100.81     LegendNANA
03:00 19.0 15.9 82 0.0 6 8 16.1 100.80     LegendNANA
04:00 19.0 15.8 81 0.0 6 17 16.1 100.76     LegendNANA
05:00 19.1 16.2 83 0.0 7 15 16.1 100.76     LegendNANA
06:00 19.2 16.5 84 0.0 7 15 16.1 100.78     LegendNANA
07:00 19.3 16.6 84 0.0 6 18 16.1 100.79     LegendNANA
08:00 20.0 16.8 81 0.0 6 22 16.1 100.77 25   LegendNANA
09:00 20.0 17.1 83 0.0 6 22 16.1 100.76 25   LegendNANA
10:00 19.9 17.4 85 0.0 7 21 16.1 100.76     LegendNANA
11:00 19.9 18.0 89 0.0 7 18 16.1 100.85     Rain
12:00 19.7 18.5 93 0.2 7 15 16.1 100.86     Rain
13:00 20.0 18.7 92 0.2 4 21 16.1 100.84 27   Rain
14:00 19.9 19.1 95 0.5 7 18 16.1 100.83     Rain
15:00 20.1 19.5 96 0.2 6 17 16.1 100.77 27   Rain
16:00 20.4 18.8 90 0.2 8 13 16.1 100.78 27   LegendNANA
17:00 20.0 18.5 91 0.0 8 17 16.1 100.77 26   LegendNANA
18:00 20.3 17.7 85 0.0 5 17 16.1 100.75 26   LegendNANA
19:00 20.6 16.3 76 0.0 6 21 16.1 100.74 25   LegendNANA
20:00 20.1 17.9 87 0.0 6 18 16.1 100.72 26   LegendNANA
21:00 20.4 17.8 85 0.0 6 22 16.1 100.80 26   LegendNANA
22:00 20.1 18.1 88 0.0 6 21 16.1 100.80 26   LegendNANA
23:00 20.1 18.1 88 0.0 6 21 16.1 100.81 26   LegendNANA

Notes on Data Quality.

Legend

  • E = Estimated
  • M = Missing
  • NA = Not Available*
  • [empty] = Indicates an unobserved value
Date modified: